Weather History for Corlu, Turkey

Change the Weather History Date:

Sunday, September 30, 2012

  Actual Average (LTBA) Record (LTBA)
Temperature  
Mean Temperature 70 °F -  
Max Temperature 80 °F 72 °F 85 °F (2013)
Min Temperature 59 °F 60 °F 54 °F (2014)
Cooling Degree Days 4    
Growing Degree Days 20 (Base 50)    
Moisture  
Dew Point 62 °F    
Average Humidity 80    
Maximum Humidity 100    
Minimum Humidity 51    
Precipitation  
Precipitation 0.00 in - - ()
Sea Level Pressure  
Sea Level Pressure 30.10 in    
Wind  
Wind Speed 8 mph ()    
Max Wind Speed 21 mph    
Max Gust Speed -    
Visibility 5.1 miles    
Events      
Averages and records for this station are not official NWS values.
T = Trace of Precipitation, MM = Missing Value Source: Averaged Metar Reports

Daily Weather History Graph

Daily Weather History Graph

Search for Another Location

Airport:

Trip Planner

Search our weather history database for the weather conditions in past years. The results will help you decide how hot, cold, wet, or windy it might be!

Date:

Astronomy

Sep. 30, 2012 Rise Set
Actual Time 7:04 AM EEST 6:51 PM EEST
Civil Twilight 6:36 AM EEST 7:19 PM EEST
Nautical Twilight 6:04 AM EEST 7:50 PM EEST
Astronomical Twilight 5:32 AM EEST 8:23 PM EEST
Moon 6:44 PM EEST (9/30) 7:16 AM EEST (9/30)
Length of Visible Light 12h 42m
Length of Day
11h 47m
Full, 100% of the Moon is Illuminated
Sep 30
Full
Oct 8
Last Quarter
Oct 15
New
Oct 22
First Quarter
Oct 29
Full

Hourly Weather History & Observations

Time (EEST) Temp. Heat Index Dew Point Humidity Pressure Visibility Wind Dir Wind Speed Gust Speed Precip Events Conditions
12:20 AM 64.4 °F - 60.8 °F 88% 30.09 in - Variable 1.2 mph - N/A   Clear
12:50 AM 62.6 °F - 60.8 °F 94% 30.09 in - NNW 3.5 mph - N/A   Clear
1:20 AM 62.6 °F - 60.8 °F 94% 30.09 in - North 3.5 mph - N/A   Clear
1:50 AM 64.4 °F - 62.6 °F 94% 30.09 in - NE 6.9 mph - N/A   Clear
2:20 AM 64.4 °F - 62.6 °F 94% 30.12 in - ENE 9.2 mph - N/A   Clear
3:20 AM 64.4 °F - 62.6 °F 94% 30.09 in - ENE 5.8 mph - N/A   Clear
3:50 AM 62.6 °F - 60.8 °F 94% 30.09 in - Variable 2.3 mph - N/A   Clear
4:20 AM 62.6 °F - 60.8 °F 94% 30.09 in - NE 4.6 mph - N/A   Clear
4:50 AM 62.6 °F - 60.8 °F 94% 30.09 in - Variable 3.5 mph - N/A   Clear
5:20 AM 60.8 °F - 60.8 °F 100% 30.09 in - Variable 3.5 mph - N/A   Clear
5:50 AM 59.0 °F - 59.0 °F 100% 30.09 in - Variable 2.3 mph - N/A   Clear
6:20 AM 60.8 °F - 60.8 °F 100% 30.09 in - NNE 5.8 mph - N/A   Clear
6:50 AM 60.8 °F - 60.8 °F 100% 30.12 in 3.7 mi NNE 5.8 mph - N/A   Scattered Clouds
7:20 AM 62.6 °F - 62.6 °F 100% 30.12 in 5.0 mi North 3.5 mph - N/A   Scattered Clouds
7:50 AM 62.6 °F - 62.6 °F 100% 30.12 in 3.7 mi North 4.6 mph - N/A   Scattered Clouds
8:20 AM 62.6 °F - 62.6 °F 100% 30.12 in 3.1 mi NNW 4.6 mph - N/A   Scattered Clouds
8:50 AM 66.2 °F - 64.4 °F 94% 30.12 in 5.0 mi NNE 8.1 mph - N/A   Partly Cloudy
9:20 AM 68.0 °F - 64.4 °F 88% 30.12 in 6.2 mi NE 9.2 mph - N/A   Scattered Clouds
9:50 AM 71.6 °F - 64.4 °F 78% 30.12 in 6.2 mi NNE 15.0 mph - N/A   Scattered Clouds
10:20 AM 73.4 °F - 64.4 °F 73% 30.12 in 6.2 mi ENE 13.8 mph - N/A   Scattered Clouds
10:50 AM 75.2 °F - 62.6 °F 65% 30.12 in 6.2 mi ENE 13.8 mph - N/A   Scattered Clouds
11:20 AM 75.2 °F - 62.6 °F 65% 30.12 in 6.2 mi NE 12.7 mph - N/A   Partly Cloudy
11:50 AM 77.0 °F - 62.6 °F 61% 30.12 in - ENE 12.7 mph - N/A   Clear
12:20 PM 78.8 °F - 62.6 °F 57% 30.12 in - NE 12.7 mph - N/A   Clear
12:50 PM 78.8 °F - 62.6 °F 57% 30.12 in - ENE 13.8 mph - N/A   Clear
1:20 PM 78.8 °F - 60.8 °F 54% 30.09 in - NE 16.1 mph - N/A   Clear
1:50 PM 78.8 °F - 62.6 °F 57% 30.09 in - ENE 13.8 mph - N/A   Clear
2:20 PM 78.8 °F - 60.8 °F 54% 30.09 in - ENE 16.1 mph - N/A   Clear
2:50 PM 78.8 °F - 60.8 °F 54% 30.09 in - NE 15.0 mph - N/A   Clear
3:20 PM 78.8 °F - 59.0 °F 51% 30.09 in - NE 16.1 mph - N/A   Clear
3:50 PM 80.6 °F 81.5 °F 60.8 °F 51% 30.09 in - NE 15.0 mph - N/A   Clear
4:20 PM 78.8 °F - 60.8 °F 54% 30.09 in - NNE 18.4 mph - N/A   Clear
4:50 PM 77.0 °F - 59.0 °F 54% 30.09 in - NE 18.4 mph - N/A   Clear
5:20 PM 75.2 °F - 60.8 °F 61% 30.09 in - NE 18.4 mph - N/A   Clear
5:50 PM 73.4 °F - 59.0 °F 61% 30.09 in - NE 18.4 mph - N/A   Clear
6:20 PM 71.6 °F - 60.8 °F 69% 30.09 in - NE 16.1 mph - N/A   Clear
6:50 PM 69.8 °F - 60.8 °F 73% 30.09 in - NE 15.0 mph - N/A   Clear
7:20 PM 68.0 °F - 62.6 °F 83% 30.09 in - NE 17.3 mph - N/A   Clear
7:50 PM 68.0 °F - 62.6 °F 83% 30.09 in - NNE 20.7 mph - N/A   Clear
8:20 PM 66.2 °F - 62.6 °F 88% 30.09 in - NNE 18.4 mph - N/A   Clear
8:50 PM 66.2 °F - 62.6 °F 88% 30.09 in - NNE 17.3 mph - N/A   Clear
9:20 PM 66.2 °F - 62.6 °F 88% 30.09 in - NNE 18.4 mph - N/A   Clear
9:50 PM 66.2 °F - 64.4 °F 94% 30.09 in - NE 13.8 mph - N/A   Clear
10:20 PM 64.4 °F - 62.6 °F 94% 30.12 in - NE 13.8 mph - N/A   Clear
10:50 PM 66.2 °F - 64.4 °F 94% 30.12 in - NNE 17.3 mph - N/A   Clear
11:20 PM 64.4 °F - 62.6 °F 94% 30.12 in - NNE 12.7 mph - N/A   Clear
11:50 PM 64.4 °F - 62.6 °F 94% 30.12 in - NNE 13.8 mph - N/A   Clear